Location: Alafon
(8.4500°N, 4.2333°E)
Time: 12:43:36
(UTC+00:00)

Vanguard 1 Rocket - Pass Details

Date: 26 July 2021
Orbit: 650 x 4226 km, 34.3° (Epoch: 27 September)

Event Time Altitude Azimuth Distance (km) Brightness Sun altitude
Exits shadow 03:50:01 - 201° (SSW) 7,136 11.5 -24.6°
Reaches altitude 10° 03:54:43 10° 191° (S) 6,897 11.5 -23.6°
Maximum altitude 04:09:38 19° 153° (SSE) 6,666 11.8 -20.2°
Drops below altitude 10° 04:24:52 10° 115° (ESE) 7,204 12.5 -16.8°
Sets 04:33:16 0° 99° (E) 7,806 13.2 -14.9°
